Location: Erba
(45.8000°N, 9.2500°E)
Time: 22:12:58
(UTC+01:00)

ISS - Visible Passes

Search period start: 23 January 2021 00:00
Search period end: 02 February 2021 00:00
Orbit: 418 x 421 km, 51.6° (Epoch: 24 January)

Date Brightness Start Highest point End Pass type
(mag) Time Alt. Az. Time Alt. Az. Time Alt. Az.
23 Jan -3.6 17:55:15 10° SW 17:58:36 68° SSE 18:01:49 11° ENE visible
23 Jan -2.1 19:32:28 10° W 19:34:48 30° NW 19:34:48 30° NW visible
24 Jan -3.0 18:44:54 10° W 18:48:09 43° NNW 18:49:25 29° NE visible
25 Jan -3.3 17:57:23 10° WSW 18:00:42 56° NNW 18:04:00 10° ENE visible
25 Jan -1.8 19:34:58 10° WNW 19:36:58 24° NW 19:36:58 24° NW visible
26 Jan -2.5 18:47:23 10° WNW 18:50:27 31° N 18:51:32 25° NNE visible
27 Jan -2.7 17:59:46 10° W 18:02:55 35° NNW 18:06:05 10° NE visible
27 Jan -1.8 19:37:14 10° WNW 19:39:03 24° NNW 19:39:03 24° NNW visible
28 Jan -2.5 18:49:44 10° WNW 18:52:46 29° N 18:53:37 25° NNE visible
29 Jan -2.5 18:02:11 10° WNW 18:05:11 29° N 18:08:11 10° ENE visible
29 Jan -2.0 19:39:16 10° NW 19:41:09 27° NW 19:41:09 27° NW visible
30 Jan -2.9 18:51:51 10° NW 18:55:00 35° NNE 18:55:46 31° NE visible
30 Jan -0.2 20:28:38 10° WNW 20:28:44 11° WNW 20:28:44 11° WNW visible
31 Jan -2.6 18:04:22 10° WNW 18:07:26 31° N 18:10:25 10° ENE visible
31 Jan -2.4 19:41:11 10° WNW 19:43:24 38° NW 19:43:24 38° NW visible
01 Feb -3.6 18:53:45 10° WNW 18:57:06 57° NNE 18:58:08 37° E visible
01 Feb -0.3 20:30:50 10° W 20:31:07 12° W 20:31:07 12° W visible
